Regional Weather Roundup
Issued by NWS Boston, MA

Home | Current Version | Previous Version | Text Only | Print | Product List | Glossary On
Versions: 1 2 3 4 5 6 7 8 9 10 11 12 13 14 15 16 17 18 19 20 21 22 23 24 25 26 27 28 29 30 31 32 33 34 35 36 37 38 39 40 41 42 43 44 45 46 47 48 49 50
299
ASUS41 KBOX 290410
RWRBOX

REGIONAL WEATHER ROUNDUP
NATIONAL WEATHER SERVICE TAUNTON MA
1200 AM EDT THU JUN 29 2017

NOTE:  "FAIR" INDICATES FEW OR NO CLOUDS BELOW 12,000 FEET WITH NO
SIGNIFICANT WEATHER AND/OR OBSTRUCTIONS TO VISIBILITY.

MAZALL-290500-
EASTERN MASSACHUSETTS

CITY           SKY/WX    TMP DP  RH WIND       PRES   REMARKS
BOSTON         PTCLDY    68  50  52 SW9       30.08R
BEVERLY        CLEAR     61  54  77 CALM      30.07R
LAWRENCE       CLEAR     64  53  67 S5        30.09S
BEDFORD        CLEAR     58  51  78 W7        30.07S
BLUE HILL        N/A     64  49  57 MISG      30.09S
NORWOOD        CLEAR     56  54  93 CALM      30.09R
MARSHFIELD     CLEAR     64  55  72 SW7       30.09R
PLYMOUTH       PTCLDY    62  55  77 SW5       30.11R
TAUNTON        CLEAR     65  56  72 SW7       30.10R
NEW BEDFORD    PTCLDY    62  57  83 SW7       30.11R
$$

MAZALL-290500-
CAPE COD AND THE ISLANDS

CITY           SKY/WX    TMP DP  RH WIND       PRES   REMARKS
FALMOUTH       CLEAR     64  59  82 SW14G21   30.12S
HYANNIS        CLEAR     66  58  75 W13       30.10R
CHATHAM        CLEAR     66  59  78 VRB7      30.11S
PROVINCETOWN   CLEAR     63  58  83 SW12      30.10R
NANTUCKET      CLEAR     63  61  93 W12       30.12S
MARTHAS VNYRD  CLEAR     64  59  83 W6        30.12S
$$

MAZALL-290500-
CENTRAL AND WESTERN MASSACHUSETTS

CITY           SKY/WX    TMP DP  RH WIND       PRES   REMARKS
WORCESTER      PTCLDY    61  47  59 SW7       30.12R
FITCHBURG      CLEAR     58  54  86 CALM      30.10S
ORANGE         CLEAR     55  54  96 CALM      30.11R
SPRINGFIELD    MOCLDY    57  53  87 SE3       30.08S
WESTFIELD      LGT RAIN  56  54  93 CALM        N/A
NORTH ADAMS    CLOUDY    53  51  93 CALM      30.10F
PITTSFIELD     PTCLDY    53  51  93 CALM      30.10S
$$

RIZALL-290500-
RHODE ISLAND

CITY           SKY/WX    TMP DP  RH WIND       PRES   REMARKS
PROVIDENCE     PTCLDY    65  58  78 W12       30.11S
NEWPORT        PTCLDY    65  60  84 SW7       30.12R
BLOCK ISLAND   CLEAR     65  60  84 SW13      30.13S
WESTERLY       MOCLDY    67  61  81 SW6       30.13S
$$

CTZALL-290500-
CONNECTICUT

CITY           SKY/WX    TMP DP  RH WIND       PRES   REMARKS
BRADLEY INTL   MOCLDY    64  54  69 S6        30.10R
HARTFORD       PTCLDY    65  57  75 S5        30.10R
BRIDGEPORT     MOCLDY    68  60  75 SW5       30.12R
DANBURY        PTCLDY    59  54  83 CALM      30.13R
GROTON         CLEAR     66  57  72 CALM      30.12R
NEW HAVEN      MOCLDY    67  59  75 SW6       30.12R
CHESTER        FAIR      64  59  82 SW6       30.13R
MERIDEN        CLEAR     60  57  89 CALM      30.11R
WILLIMANTIC    CLOUDY    60  57  89 CALM      30.12R
OXFORD         CLOUDY    63  52  67 CALM      30.14S
$$

MEZ002-015-021-024-NHZ003-005-008-011-012-014-VTZ005-008-290500-
NORTHERN NEW ENGLAND

CITY           SKY/WX    TMP DP  RH WIND       PRES   REMARKS
PORTLAND ME    CLEAR     60  52  74 W3        30.04F
BANGOR ME      PTCLDY    56  54  93 SW5       30.02S
CONCORD NH     CLEAR     57  53  86 CALM      30.07S
MANCHESTER NH  PTCLDY    62  51  67 S5        30.06S
NASHUA NH      PTCLDY    57  54  89 CALM      30.08S
PORTSMOUTH NH  PTCLDY    59  53  79 SW5       30.05S
JAFFREY NH     NOT AVBL
KEENE NH       CLEAR     53  52  96 CALM      30.10R
BURLINGTON VT  CLEAR     60  54  80 SE3       30.03S
MT. WASHINGTON LGT RAIN  37  37 100 W46         N/A  VSB 0   WCI  22
$$

NYZ052-076-290500-
EASTERN NEW YORK

CITY           SKY/WX    TMP DP  RH WIND       PRES   REMARKS
ALBANY         MOCLDY    58  53  84 S5        30.07S
NEW YORK CITY  CLOUDY    75  52  44 SW8       30.11S
$$

ANZALL-290500-
MARINE OBSERVATIONS

STATION/POSITION TIME  TEMP    WIND        PRES    VSBY  WAVE
                       AIR SEA DIR/SP/G                  HT/PER
                 (UTC) (F)     (DEG/KT/KT) (MB)    (MI)  (FT/S)
BOSTON BUOY      0350   64 61  190/ 10/ 10 1018.2R         1
BUZZARDS BAY     0300   65     240/ 17/ 18 1020.1R
NANTUCKET SOUND  0350      67              1019.3F         2/ 3
MASS BAY-STELLWA 0304   64 63  180/  6/  8 1017.6F         1
ISLE OF SHOALS   0300   68     200/  9/  9 1017.7F
S OF BLOCK IS    0325      64                N/A           3/ 5
$$

......................KEY.........................
  SKY/WX - SKY CONDITION/PRESENT WEATHER
  TMP    - TEMPERATURE IN FAHRENHEIT
  DWPT   - DEWPOINT IN FAHRENHEIT
  RH     - RELATIVE HUMIDITY IN PERCENT
  WIND   - DIRECTION AND SPEED IN MPH
  PRES   - MEAN SEA LEVEL PRESSURE IN INCHES OF HG
  WCI    - WIND CHILL INDEX
  VSB    - VISIBILITY IN MILES
  HX     - HEAT INDEX
  TC     - TEMPERATURE IN CELSIUS
  VRB    - VARIABLE WIND DIRECTION
  N/A    - NOT AVAILABLE




USA.gov is the U.S. government's official web portal to all federal, state and local government web resources and services.